This is the latest recevied weather packets stored in our database for station/object K3JSE-2. If no packets are shown the sender has not sent any weather packets the latest 10 day(s).
| Time | Temp. | Humidity | Pressure | Rain* | Wind** | Luminosity | Snow |
|---|---|---|---|---|---|---|---|
| 1777760088 | 12.22° C | 40% | 1012 hPa | 0 mm | - | - | - |
| 1777759920 | 12.78° C | 40% | 1011.9 hPa | 0 mm | - | - | - |
| 1777759809 | 12.78° C | 41% | 1011.9 hPa | 0 mm | - | - | - |
| 1777759558 | 12.78° C | 38% | 1011.8 hPa | 0 mm | - | - | - |
| 1777759276 | 12.78° C | 39% | 1011.8 hPa | 0 mm | - | - | - |
| 1777759210 | 12.78° C | 41% | 1011.7 hPa | 0 mm | - | - | - |
| 1777759013 | 13.33° C | 38% | 1011.8 hPa | 0 mm | - | - | - |
| 1777758748 | 13.33° C | 39% | 1011.8 hPa | 0 mm | - | - | - |
| 1777758529 | 13.89° C | 38% | 1011.8 hPa | 0 mm | - | - | - |
| 1777758453 | 13.89° C | 40% | 1011.8 hPa | 0 mm | - | - | - |
| 1777758153 | 13.89° C | 35% | 1011.7 hPa | 0 mm | - | - | - |
| 1777757873 | 14.44° C | 35% | 1011.7 hPa | 0 mm | - | - | - |
| 1777757870 | 14.44° C | 35% | 1011.7 hPa | 0 mm | - | - | - |
| 1777757573 | 13.89° C | 42% | 1011.5 hPa | 0 mm | - | - | - |
| 1777757328 | 14.44° C | 37% | 1011.5 hPa | 0 mm | - | - | - |
| 1777757163 | 14.44° C | 39% | 1011.5 hPa | 0 mm | - | - | - |
| 1777757063 | 13.89° C | 37% | 1011.5 hPa | 0 mm | - | - | - |
| 1777756773 | 13.89° C | 36% | 1011.5 hPa | 0 mm | - | - | - |
| 1777756513 | 14.44° C | 40% | 1011.4 hPa | 0 mm | - | - | - |
| 1777756465 | 14.44° C | 39% | 1011.4 hPa | 0 mm | - | - | - |
| 1777756213 | 14.44° C | 39% | 1011.4 hPa | 0 mm | - | - | - |
| 1777755953 | 15° C | 37% | 1011.3 hPa | 0 mm | - | - | - |
| 1777755668 | 13.89° C | 39% | 1011.4 hPa | 0 mm | - | - | - |
| 1777755378 | 12.78° C | 39% | 1011.4 hPa | 0 mm | - | - | - |
| 1777755126 | 13.33° C | 41% | 1011.4 hPa | 0 mm | - | - | - |
* Rain latest hour (hover to see other rain measurements)
** Current wind speed in m/s (hover to see current wind gust speed)